logo tempoitalia

Diretta Meteo Roma-Ciampino, Italiasabato 21 maggio ore 11:20

Mappa
Sereno 25 °C Sereno 24 Ore: T.min 15 T.max 28
Ponente Nord-Ovest Km/h 7.4 Punto di rugiada: 8 °C Umidità: 33% Visibilità: 10 Km
Il sole sorge alle: 05:42 Il sole tramonta alle: 20:29
21 Maggio 2022 11:20 tempo osservato: Sereno Sereno 25 33 1022 vento: Nord NO 7.4
21 Maggio 2022 10:50 tempo osservato: Sereno Sereno 24 33 1022 vento: Nord N 5.5
21 Maggio 2022 10:20 tempo osservato: Sereno Sereno 23 38 1022 vento: Nord NO 7.4
21 Maggio 2022 09:50 tempo osservato: Sereno Sereno 22 43 1022 vento: Nord N 5.5
21 Maggio 2022 09:20 tempo osservato: Sereno Sereno 21 46 1023 vento: Nord N 3.7
21 Maggio 2022 08:50 tempo osservato: Sereno Sereno 20 49 1023 vento: Nord N 5.5
21 Maggio 2022 08:20 tempo osservato: Sereno Sereno 19 52 1023 vento: Nord N 5.5
21 Maggio 2022 07:50 tempo osservato: Sereno Sereno 17 55 1023 vento: Nord N 5.5
21 Maggio 2022 07:20 tempo osservato: Sereno Sereno 17 51 1023 vento: Nord N 3.7
21 Maggio 2022 06:50 tempo osservato: Sereno Sereno 15 58 1023 vento: Nord N 3.7
21 Maggio 2022 06:20 tempo osservato: Sereno Sereno 16 51 1023 vento: Nord N 5.5
21 Maggio 2022 05:50 tempo osservato: Sereno Sereno 16 47 1023 vento: Nord N 5.5
21 Maggio 2022 05:20 tempo osservato: Sereno Sereno 16 47 1023 vento: Nord N 3.7
21 Maggio 2022 04:50 tempo osservato: Sereno Sereno 17 45 1023 vento: Nord N 5.5
21 Maggio 2022 04:20 tempo osservato: Sereno Sereno 16 47 1023 vento: Nord N 5.5
21 Maggio 2022 03:50 tempo osservato: Sereno Sereno 16 51 1024 vento: Nord N 1.8
21 Maggio 2022 03:20 tempo osservato: Sereno Sereno 18 45 1024 vento: Nord N 3.7
21 Maggio 2022 02:50 tempo osservato: Sereno Sereno 18 48 1024 vento: Nord N 5.5
21 Maggio 2022 02:20 tempo osservato: Sereno Sereno 18 55 1024 vento: Nord N 3.7
21 Maggio 2022 01:50 tempo osservato: Sereno Sereno 18 55 1024 vento: Nord N 3.7
21 Maggio 2022 01:20 tempo osservato: Sereno Sereno 19 55 1025 vento: Nord N 5.5
21 Maggio 2022 00:50 tempo osservato: Sereno Sereno 19 59 1025 vento: Nord N 5.5
21 Maggio 2022 00:20 tempo osservato: Sereno Sereno 19 63 1025 vento: Nord N 5.5
20 Maggio 2022 23:50 tempo osservato: Sereno Sereno 19 63 1025 vento: Nord S/SO 7.4
20 Maggio 2022 23:20 tempo osservato: Sereno Sereno 19 59 1025 vento: Nord S/SO 7.4
20 Maggio 2022 22:50 tempo osservato: Sereno Sereno 19 59 1025 vento: Nord S/SO 7.4
20 Maggio 2022 22:20 tempo osservato: Sereno Sereno 19 52 1026 vento: Nord SO 7.4
20 Maggio 2022 21:50 tempo osservato: Sereno Sereno 20 49 1026 vento: Nord N 5.5
20 Maggio 2022 21:20 tempo osservato: Sereno Sereno 19 52 1025 vento: Nord SO 7.4
20 Maggio 2022 20:50 tempo osservato: Sereno Sereno 20 49 1026 vento: Nord N 5.5
20 Maggio 2022 20:20 tempo osservato: Sereno Sereno 21 46 1025 vento: Nord O 9.3
20 Maggio 2022 19:50 tempo osservato: Sereno Sereno 21 43 1026 vento: Nord O 13
20 Maggio 2022 19:20 tempo osservato: Sereno Sereno 22 40 1026 vento: Nord O 16.7
20 Maggio 2022 18:50 tempo osservato: Sereno Sereno 23 35 1026 vento: Nord O 16.7
20 Maggio 2022 18:20 tempo osservato: Sereno Sereno 24 33 1026 vento: Nord O 18.5
20 Maggio 2022 17:50 tempo osservato: Sereno Sereno 24 31 1026 vento: Nord O 20.3
20 Maggio 2022 17:20 tempo osservato: Sereno Sereno 25 31 1026 vento: Nord O 18.5
20 Maggio 2022 16:50 tempo osservato: Sereno Sereno 25 31 1026 vento: Nord O 22.2
20 Maggio 2022 16:20 tempo osservato: Sereno Sereno 26 31 1026 vento: Nord O 20.3
20 Maggio 2022 15:50 tempo osservato: Sereno Sereno 26 31 1026 vento: Nord O 18.5
20 Maggio 2022 15:20 tempo osservato: Sereno Sereno 26 34 1026 vento: Nord O 22.2
20 Maggio 2022 14:50 tempo osservato: Sereno Sereno 27 32 1027 vento: Nord O/NO 24
20 Maggio 2022 14:20 tempo osservato: Sereno Sereno 26 36 1027 vento: Nord O 24
20 Maggio 2022 13:50 tempo osservato: Sereno Sereno 27 30 1027 vento: Nord O/NO 22.2
20 Maggio 2022 13:20 tempo osservato: Sereno Sereno 27 32 1027 vento: Nord O 18.5
20 Maggio 2022 12:50 tempo osservato: Sereno Sereno 28 32 1027 vento: Nord N/NO 13
20 Maggio 2022 12:20 tempo osservato: Sereno Sereno 26 29 1028 vento: Nord N/NO 9.3
20 Maggio 2022 11:50 tempo osservato: Sereno Sereno 26 34 1028 vento: Nord O/NO 9.3